Orbital Elements at Epoch 2459200.5 (2020-Dec-17.0) TDB
Reference: JPL 21 (heliocentric ecliptic J2000)
Element | Value | Uncertainty (1-sigma) | Units |
e | .07984653127929536 | 3.8451e-08 | |
a | 2.947573396304543 | 2.0563e-08 | au |
q | 2.712219884918493 | 1.1345e-07 | au |
i | 12.29113048230125 | 4.6264e-06 | deg |
node | 83.69734093489652 | 1.7662e-05 | deg |
peri | 120.7291878318657 | 3.3235e-05 | deg |
M | 67.86469866057489 | 2.6353e-05 | deg |
tp | 2458852.052949039532 (2020-Jan-03.55294904) | 0.00013597 | TDB |
period | 1848.397485313549 5.06 | 1.9342e-05 5.296e-08 | d yr |
n | .1947633032723652 | 2.0381e-09 | deg/d |
Q | 3.182926907690592 | 2.2205e-08 | au |
|
| | Orbit Determination Parameters
Additional Information
|